User: anonymous   Login
Location: Unspecified
(0.0000°N, 0.0000°E)
Time: 19:02:29
(UTC+00:00)
Language:

DNEPR OBJECT AD - Orbit

View from above orbital plane
View from above orbital plane
View from above satellite
View from above satellite

Ground track
Ground track

The orbit data is extracted from the following two-line orbital elements,

1 39443U 13066AD  18350.93570079 +.00000216 +00000-0 +24708-4 0  9990
2 39443 097.5890 045.8131 0024441 179.8766 180.2465 14.95167752274156
Epoch (UTC): 16 December 2018 22:27:24
Eccentricity: 0.0024441
inclination: 97.5890°
perigee height: 565 km
apogee height: 599 km
right ascension of ascending node: 45.8131°
argument of perigee: 179.8766°
revolutions per day: 14.95167752
mean anomaly at epoch: 180.2465°
orbit number at epoch: 27415

The dashed part of the orbit path shows where the satellite is in the earth's shadow,  

DLR